Strona główna
METAR-TAF:

METAR-TAF

Lotnisko :

Somerset Airport

Somerville, New Jersey, Stany Zjednoczone

Szerokość geograficzna: 40-37-26N, Długość geograficzna: 074-40-10W, wysokość: 32 m

Aktualna obserwacja pogody

Raport powstał 58 minut temu, godzina 18:53 UTC
Wiatr 3 kt od zachód
Temperatura 3°C
Wilgotność 38%
Ciśnienie 1018 hPa
bezchmurnie

METAR: KSMQ 251853Z AUTO 26003KT CLR 03/M10 A3006 RMK AO2 SLP180 T00281100 $

czas: 14:51 (19:51 UTC)


TAF: brakujący

Obserwacja i prognoza pogody dla ponad 4000 lotnisk (raport METAR i TAF).

Dostępne stacje oznaczono żółtymi i czerwonymi punktami na mapie.

Najedź kursorem aby zobaczyć nazwę stacji.

Kliknij aby zobaczyć obserwacje i prognozy pogody.

Aby zmienić mapę: kliknij na zielony przycisk z czarnym krzyżykiem, aby powiększyć; na zielony przycisk z myślnikiem, aby pomniejszyć; na zielone strzałki, aby przejść do map sąsiednich.


METAR-TAF: